SCP
0 0 0 0 0 0 0 0 0 0 0 0 0 0 0 0 0 0 0 0 0 0 0 0 0 0 0 0 0 0 0 0 0 0 0 0 0 0 0 0 0 0 0
0 0 0 0 0 0 0 0 0 0 0 0 0 0 0 0 0 0 0 0 0 0 0 0 0 0 0 0 0 0 0 0 0 0 0 0 0 0 0 0 0 0 0
0 0 0 0 0 0 0 0 0 0 0 0 0 0 0 0 0 0 0 0 0 0 0 0 0 0 0 0 0 0 0 0 0 0 0 0 0 0 0 0 0 0 0
0 0 0 0 0 0 0 0 0 0 0 0 0 0 0 0 0 0 0 0 0 0 0 0 0 0 0 0 0 0 0 0 0 0 0 0 0 0 0 0 0 0 0
0 0 0 0 0 0 0 0 0 0 0 0 0 0 0 0 0 0 0 0 0 0 0 0 0 0 0 0 0 0 0 0 0 0 0 0 0 0 0 0 0 0 0
0 0 0 0 0 0 0 0 0 0 0 0 0 0 0 0 0 0 0 0 0 0 0 0 0 0 0 0 0 0 0 0 0 0 0 0 0 0 0 0 0 0 0
0 0 0 0 0 0 0 0 0 0 0 0 0 0 0 0 0 0 0 0 0 0 0 0 0 0 0 0 0 0 0 0 0 0 0 0 0 0 0 0 0 0 0
0 0 0 0 0 0 0 0 0 0 0 0 0 0 0 0 0 0 0 0 0 0 0 0 0 0 0 0 0 0 0 0 0 0 0 0 0 0 0 0 0 0 0
0 0 0 0 0 0 0 0 0 0 0 0 0 0 0 0 0 0 0 0 0 0 0 0 0 0 0 0 0 0 0 0 0 0 0 0 0 0 0 0 0 0 0
0 0 0 0 0 0 0 0 0 0 0 0 0 0 0 0 0 0 0 0 0 0 0 0 0 0 0 0 0 0 0 0 0 0 0 0 0 0 0 0 0 0 0
0 0 0 0 0 0 0 0 0 0 0 0 0 0 0 0 0 0 0 0 0 0 0 0 0 0 0 0 0 0 0 0 0 0 0 0 0 0 0 0 0 0 0
0 0 0 0 0 0 0 0 0 0 0 0 0 0 0 0 0 0 0 0 0 0 0 0 0 0 0 0 0 0 0 0 0 0 0 0 0 0 0 0 0 0 0
0 0 0 0 0 0 0 0 0 0 0 0 0 0 0 0 0 0 0 0 0 0 0 0 0 0 0 0 0 0 0 0 0 0 0 0 0 0 0 0 0 0 0
0 0 0 0 0 0 0 0 0 0 0 0 0 0 0 0 0 0 0 0 0 0 0 0 0 0 0 0 0 0 0 0 0 0 0 0 0 0 0 0 0 0 0
0 0 0 0 0 0 0 0 0 0 0 0 0 0 0 0 0 0 0 0 0 0 0 0 0 0 0 0 0 0 0 0 0 0 0 0 0 0 0 0 0 0 0
0 0 0 0 0 0 0 0 0 0 0 0 0 0 0 0 0 0 0 0 0 0 0 0 0 0 0 0 0 0 0 0 0 0 0 0 0 0 0 0 0 0 0
0 0 0 0 0 0 0 0 0 0 0 0 0 0 0 0 0 0 0 0 0 0 0 0 0 0 0 0 0 0 0 0 0 0 0 0 0 0 0 0 0 0 0
0 0 0 0 0 0 0 0 0 0 0 0 0 0 0 0 0 0 0 0 0 0 0 0 0 0 0 0 0 0 0 0 0 0 0 0 0 0 0 0 0 0 0
0 0 0 0 0 0 0 0 0 0 0 0 0 0 0 0 0 0 0 0 0 0 0 0 0 0 0 0 0 0 0 0 0 0 0 0 0 0 0 0 0 0 0
1 1 0 0 0 0 0 0 0 0 0 0 0 0 0 0 0 0 0 0 0 0 0 0 0 0 0 0 0 0 0 0 0 0 0 0 0 0 0 0 0 0 0
1 1 0 0 0 0 0 0 0 0 0 0 0 0 0 0 0 0 0 0 0 0 0 0 0 0 0 0 0 0 0 0 0 0 0 0 0 0 0 0 0 0 0
1 1 1 0 0 0 0 0 0 0 0 0 0 0 0 0 0 0 0 0 0 0 0 0 0 0 0 0 0 0 0 0 0 0 0 0 0 0 0 0 0 0 0
1 1 1 1 1 0 0 0 0 0 0 0 0 0 0 0 0 0 0 0 0 0 0 0 0 0 0 0 0 0 0 0 0 0 0 0 0 0 0 0 0 0 0
1 1 1 1 1 1 1 1 1 1 1 0 0 0 0 0 0 0 0 0 0 0 0 0 0 0 0 0 0 0 0 0 0 0 0 0 0 0 0 0 0 0 0
1 1 1 1 1 1 1 1 1 1 1 1 0 0 0 0 0 0 0 0 0 0 0 0 0 0 0 0 0 0 0 0 0 0 0 0 0 0 0 0 0 0 0
1 1 1 1 1 1 1 1 1 1 1 1 1 0 0 0 0 0 0 0 0 0 0 0 0 0 0 0 0 0 0 0 0 0 0 0 0 0 0 0 0 0 0
Wind_Speed
10 10 12 12 12 12 11 11 10 10 11 11 11 12 12 12 12 12 12 11 11 10 10 10 9 10 10 9 10 10 9 9 8 9 10 10 9 9 9 9 8 8 11
13 12 13 12 11 11 11 10 10 10 10 11 11 12 11 11 11 11 11 11 10 10 10 10 10 10 9 9 9 8 8 8 7 8 9 9 8 8 7 7 8 7 10
13 12 12 12 11 10 10 9 9 9 10 10 11 11 11 11 10 10 10 10 9 10 9 9 9 9 9 8 8 7 7 6 6 6 6 5 6 8 9 9 10 10 9
14 12 12 12 11 10 9 9 8 9 9 10 10 10 10 10 9 9 9 9 9 9 8 8 8 8 8 7 6 6 5 4 4 4 3 4 5 9 9 9 9 9 8
13 13 13 12 11 10 9 9 8 9 9 9 10 10 10 9 9 8 8 8 7 8 8 7 7 7 7 6 5 4 3 3 3 3 2 3 4 9 10 9 9 9 8
14 14 13 13 11 11 11 10 9 9 9 9 9 9 9 8 8 7 7 7 7 7 7 7 6 6 6 5 4 2 2 3 3 3 4 5 5 9 10 10 9 8 8
14 14 13 13 12 11 11 10 9 9 10 9 9 9 8 8 7 6 6 6 6 6 6 6 5 5 5 4 2 1 2 3 4 2 3 5 6 10 10 9 9 8 8
14 14 12 13 12 11 11 10 9 10 10 9 8 8 7 7 6 6 6 6 6 6 5 5 6 5 5 4 3 3 3 5 3 2 4 5 8 10 9 9 8 8 7
14 14 12 11 11 11 10 10 9 9 9 8 8 7 7 6 5 6 6 6 6 6 5 5 5 5 5 4 4 4 5 6 4 0 4 5 9 9 9 8 8 7 7
11 11 12 12 11 10 9 10 9 9 9 9 8 7 6 6 5 7 7 7 7 6 5 5 5 5 4 4 4 5 5 4 3 1 4 7 10 9 9 8 8 7 6
10 9 9 10 9 9 10 10 9 8 8 8 7 7 6 4 4 6 8 9 8 7 6 6 6 6 5 5 6 6 4 3 2 2 4 9 10 9 8 7 7 6 6
9 9 8 9 9 7 7 8 5 6 6 4 4 4 3 3 3 4 9 10 9 8 7 6 7 6 6 4 5 6 3 3 1 3 5 10 9 8 8 7 7 6 5
9 8 8 8 7 7 5 4 2 2 4 4 4 3 2 2 2 3 3 4 5 6 4 5 6 4 3 2 2 3 3 1 2 3 6 10 8 7 7 7 7 6 6
9 9 8 8 7 6 4 3 3 2 2 3 3 2 2 1 2 2 2 2 2 2 2 2 2 2 1 1 2 1 1 1 2 3 5 9 8 8 7 7 7 6 6
9 9 9 8 7 5 3 1 3 2 2 3 3 2 2 2 2 2 2 1 1 1 2 2 1 1 1 1 1 1 1 1 2 4 4 8 7 7 7 7 7 7 6
8 8 8 9 7 5 3 2 1 2 2 3 3 2 2 2 2 1 1 1 1 1 1 1 2 1 1 1 1 1 1 1 2 3 5 6 8 7 6 6 7 7 6
8 8 7 8 8 5 4 3 2 2 3 3 3 3 2 2 2 1 1 1 0 1 2 1 1 1 2 2 2 2 1 2 2 3 4 5 6 7 7 7 6 6 6
9 8 6 6 8 5 3 2 2 1 3 2 3 3 3 2 2 1 0 1 1 1 1 2 1 1 1 1 1 1 1 2 2 3 3 4 4 5 6 8 7 6 6
9 7 5 5 7 6 4 2 1 2 2 2 2 3 2 2 2 0 1 0 1 1 0 1 1 1 1 1 1 2 2 2 2 2 2 3 4 5 5 7 9 7 7
10 8 6 6 6 5 3 2 1 2 1 2 3 3 2 1 2 0 1 0 0 0 0 1 1 1 1 1 2 1 1 2 2 2 2 2 3 5 6 6 6 6 8
10 9 7 6 6 4 3 2 2 2 1 2 3 3 2 1 2 1 1 0 0 1 1 1 1 1 1 1 0 0 1 2 2 2 2 1 2 3 4 5 5 4 5
12 10 8 7 7 5 3 2 2 2 2 2 2 2 2 1 1 2 1 0 1 1 1 0 1 1 1 0 0 1 1 1 1 2 2 2 2 2 2 4 4 4 4
12 11 9 8 7 6 5 3 2 2 1 2 3 2 1 2 1 1 1 1 0 0 1 1 1 1 1 1 0 0 0 0 1 0 2 2 2 1 1 2 3 4 4
13 12 9 8 7 6 5 4 5 4 2 2 2 2 2 2 1 1 1 1 1 1 1 1 1 1 1 2 1 0 1 1 0 1 1 1 2 1 2 1 2 2 3
13 13 11 9 7 7 5 5 4 3 3 2 3 3 2 2 2 1 1 1 1 0 0 0 1 1 1 2 2 1 1 0 1 1 1 2 1 2 1 1 1 1 2
12 12 12 10 8 7 6 5 4 4 3 3 3 3 2 2 2 2 2 1 1 0 0 1 1 1 1 2 2 2 1 1 1 1 1 2 1 1 1 1 1 1 1
Wind_Direction
108 111 109 100 97 97 98 100 100 100 102 105 108 109 108 107 106 105 104 102 102 105 108 110 108 106 102 102 101 101 102 100 97 99 100 100 98 99 105 110 107 103 107
115 114 110 103 99 98 98 99 99 99 102 105 107 108 108 107 107 108 107 106 105 105 105 105 103 105 105 106 106 109 113 113 113 113 113 108 107 108 108 102 99 109 112
114 117 111 104 100 97 97 99 100 102 104 106 108 108 107 107 108 109 110 110 110 109 106 105 106 107 109 111 112 115 119 125 135 136 133 121 118 115 112 109 109 116 117
118 117 110 107 101 99 99 99 99 105 108 110 111 111 111 111 111 114 116 116 116 116 113 111 110 109 114 117 118 122 130 141 157 172 169 129 126 123 125 123 123 125 126
112 110 111 110 105 104 104 101 101 107 112 113 114 114 113 112 111 115 120 122 122 122 119 117 117 116 116 121 125 133 150 180 199 224 130 116 115 132 136 134 132 133 134
114 112 116 115 110 107 104 101 102 109 112 115 114 113 113 110 109 110 114 119 125 126 123 121 121 123 119 122 129 145 198 227 252 213 153 138 130 140 140 139 140 141 141
116 115 121 121 118 113 109 107 105 112 112 114 115 117 117 113 111 114 116 120 129 130 128 127 129 133 125 127 140 199 250 255 250 192 128 118 128 138 140 143 144 144 144
120 118 121 126 125 121 118 114 110 116 117 117 120 122 122 124 125 127 129 127 127 134 134 138 139 143 144 152 182 222 247 267 239 168 122 111 134 140 141 145 149 150 151
125 127 130 135 133 128 126 124 121 121 122 123 126 128 129 134 143 144 145 141 139 137 135 135 144 153 162 179 206 232 250 267 288 178 119 117 137 137 139 144 149 155 156
123 127 134 141 142 142 138 137 135 132 135 136 137 139 142 150 159 159 155 152 146 142 146 154 160 168 177 198 220 239 253 273 261 166 117 126 136 138 142 145 148 154 159
120 128 135 137 142 143 141 140 147 144 147 147 151 157 161 163 157 164 142 151 156 160 168 173 177 182 189 206 222 235 248 240 199 119 107 131 141 145 150 152 155 159 162
128 128 128 128 130 134 129 136 152 155 148 159 139 151 171 156 146 130 142 162 167 170 177 187 194 199 210 208 208 219 232 221 158 112 118 137 143 149 152 155 159 160 165
130 126 124 121 118 114 108 128 126 130 137 149 135 151 144 128 124 116 140 157 174 181 187 182 198 212 214 188 171 195 220 198 120 113 129 143 148 154 156 158 160 165 169
127 124 122 114 102 94 97 110 128 131 143 139 132 147 129 117 108 119 126 148 175 171 173 185 194 197 193 205 202 198 217 157 124 114 136 149 149 151 154 157 162 167 173
129 126 116 110 105 102 96 110 131 140 142 128 125 118 113 118 111 118 118 151 167 142 171 188 177 189 205 220 221 180 191 107 118 125 137 148 145 148 152 157 164 168 172
130 125 123 125 127 135 143 149 159 153 138 126 128 133 123 114 108 103 116 142 148 166 175 192 197 196 219 189 204 160 175 129 132 143 143 152 159 158 157 160 168 172 174
135 131 136 143 138 154 161 171 158 158 138 127 123 119 122 117 116 120 130 167 174 218 180 192 214 205 205 200 193 172 186 172 148 142 151 161 163 170 169 165 165 170 177
143 142 160 152 142 150 153 170 146 131 117 121 125 120 119 109 112 136 156 168 223 231 201 190 182 225 216 196 176 183 177 164 170 168 176 170 165 167 173 174 171 172 176
145 147 158 137 143 149 155 164 155 124 117 125 113 109 114 122 120 147 166 191 241 201 198 234 122 229 240 243 201 184 185 169 177 177 186 176 165 159 162 176 180 181 186
146 150 155 149 142 147 157 158 133 115 136 122 111 111 119 124 113 36 199 211 297 67 38 25 12 271 221 252 258 160 183 183 182 175 196 181 167 170 171 165 176 190 193
153 156 160 161 149 158 167 171 161 157 158 123 122 122 129 143 143 199 9 111 121 71 42 21 358 278 246 214 274 228 202 204 179 172 168 191 182 175 162 163 178 178 184
159 160 162 167 161 173 170 170 166 151 166 125 100 125 143 131 122 133 101 309 73 115 136 69 276 292 289 149 238 267 209 217 228 181 161 190 195 182 169 179 180 171 172
163 168 172 170 164 177 169 170 162 137 134 118 131 146 149 129 140 84 105 66 51 182 143 206 258 279 287 278 210 73 5 4 295 207 186 180 165 191 206 187 183 178 178
169 169 165 164 164 170 176 177 172 169 168 151 149 145 152 152 153 121 110 100 23 22 76 259 105 296 289 293 281 131 201 128 286 312 285 170 158 195 241 236 202 177 168
171 168 164 160 163 167 180 181 185 172 163 150 140 137 165 159 155 130 117 119 131 74 100 327 44 333 320 314 321 311 309 255 263 237 280 271 232 200 187 220 249 161 141
171 166 163 160 163 168 182 179 183 176 167 156 153 156 182 161 162 146 133 128 131 116 25 22 44 313 329 333 330 326 330 299 290 286 263 263 257 232 185 186 207 198 177